EDT,Max TemperatureF,Mean TemperatureF,Min TemperatureF,Max Dew PointF,MeanDew PointF,Min DewpointF,Max Humidity, Mean Humidity, Min Humidity, Max Sea Level PressureIn, Mean Sea Level PressureIn, Min Sea Level PressureIn, Max VisibilityMiles, Mean VisibilityMiles, Min VisibilityMiles, Max Wind SpeedMPH, Mean Wind SpeedMPH, Max Gust SpeedMPH,PrecipitationIn, CloudCover, Events, WindDirDegrees
2013-6-1,90,78,65,66,64,62,87,66,44,30.03,29.97,29.89,10,10,10,14,6,25,0.00,0,,181
2013-6-2,81,75,68,71,65,60,90,76,62,29.89,29.86,29.83,10,9,0,23,6,43,0.42,4,Rain,186
2013-6-3,79,71,62,66,61,51,93,71,49,29.99,29.89,29.86,10,9,2,15,6,20,0.18,5,Rain,307
2013-6-4,76,64,51,52,45,40,86,59,31,30.15,30.09,30.01,10,10,10,14,5,17,0.00,0,,320
2013-6-5,78,65,51,56,53,49,93,68,43,30.19,30.11,30.04,10,10,10,12,5,23,0.00,4,,143
2013-6-6,66,64,62,63,59,48,93,75,56,30.05,29.95,29.86,10,7,2,12,4,17,0.63,7,Rain,125
2013-6-7,68,66,63,64,63,61,100,94,87,29.85,29.76,29.66,10,6,0,12,5,16,0.25,8,Fog-Rain,8
2013-6-8,80,71,62,62,58,55,81,64,47,30.12,29.93,29.76,10,10,9,12,5,15,0.00,3,,290
2013-6-9,79,70,61,66,62,59,90,74,58,30.20,30.14,30.09,10,9,5,10,2,13,0.00,6,,110
2013-6-10,80,73,65,72,68,64,97,86,74,30.11,29.92,29.79,10,6,1,12,3,24,0.89,7,Rain,170
2013-6-11,82,73,64,64,62,61,100,77,54,29.86,29.82,29.80,10,10,8,22,8,28,0.00,3,,231
2013-6-12,88,77,65,67,64,61,93,68,43,29.88,29.85,29.80,10,10,8,15,5,23,T,1,,234
2013-6-13,84,76,67,68,63,51,90,73,55,29.78,29.63,29.52,10,8,2,35,11,51,0.41,3,Rain,246
2013-6-14,79,71,62,54,51,48,67,51,35,30.01,29.86,29.68,10,10,10,21,11,29,0.00,4,,323
2013-6-15,82,70,57,56,52,45,80,54,28,30.11,30.04,30.01,10,10,10,14,4,30,0.00,0,,273
2013-6-16,81,71,61,65,60,56,90,72,54,30.04,29.96,29.90,10,10,10,18,6,22,T,3,,226
2013-6-17,87,76,65,66,63,59,81,61,40,29.96,29.93,29.88,10,10,2,12,4,16,0.00,1,,244
2013-6-18,77,72,67,69,66,63,93,79,64,29.91,29.87,29.82,10,9,4,12,3,17,0.02,4,Rain,133
2013-6-19,79,70,60,63,59,53,93,68,42,30.15,30.02,29.93,10,10,8,12,4,15,0.01,5,Rain,14
2013-6-20,79,69,58,64,60,56,93,74,54,30.26,30.22,30.17,10,10,7,15,4,41,0.00,3,,153
2013-6-21,82,69,56,60,57,54,86,66,45,30.29,30.26,30.22,10,9,2,12,4,25,0.00,0,,143
2013-6-22,87,72,57,65,61,55,93,69,45,30.25,30.20,30.12,10,9,3,12,4,15,0.00,0,,167
2013-6-23,87,75,63,69,66,62,93,71,48,30.19,30.15,30.07,10,9,2,8,2,18,T,1,,152
2013-6-24,90,79,67,69,66,63,93,68,43,30.14,30.10,30.03,10,9,1,23,4,31,0.42,1,Rain-Thunderstorm,222
2013-6-25,91,79,66,69,65,59,93,69,44,30.04,29.99,29.89,10,10,6,29,7,40,T,1,Rain,220
2013-6-26,90,77,64,70,66,61,97,72,46,29.94,29.89,29.84,10,10,6,18,5,21,0.03,2,Rain,227
2013-6-27,82,74,66,72,68,64,100,83,65,29.83,29.75,29.63,10,5,0,20,5,23,0.20,4,Fog-Rain,214
2013-6-28,87,77,66,67,63,58,87,66,45,29.63,29.56,29.49,10,10,10,24,6,32,0.01,2,,243
2013-6-29,86,76,65,67,62,57,93,67,40,29.73,29.63,29.54,10,8,0,24,5,33,0.53,4,Fog-Rain,204
2013-6-30,86,76,65,71,67,64,100,81,61,29.85,29.77,29.71,10,5,0,17,3,22,0.00,4,Fog,82